Regional Weather Roundup
Issued by NWS Northern Indiana

Home | Current Version | Previous Version | Graphics & Text | Print | Product List | Glossary On
Versions: 1 2 3 4 5 6 7 8 9 10 11 12 13 14 15 16 17 18 19 20 21 22 23 24 25 26 27 28 29 30 31 32 33 34 35 36 37 38 39 40 41 42 43 44 45 46 47 48 49 50
000
ASUS43 KIWX 102110
RWRIWX

KIWX WEATHER ROUNDUP
NATIONAL WEATHER SERVICE NORTHERN INDIANA
400 PM EST WED FEB 10 2016

NOTE: "FAIR" INDICATES FEW OR NO CLOUDS BELOW 12,000 FEET WITH NO
SIGNIFICANT WEATHER AND/OR OBSTRUCTIONS TO VISIBILITY.

* THESE STATIONS ARE NOT UNDER NWS QUALITY CONTROL. THEY ALSO MAY NOT
  REPORT WEATHER SUCH AS PRECIPITATION OR FOG.

INZ001>027-102200-
NORTHERN INDIANA

CITY           SKY/WX    TMP DP  RH WIND       PRES   REMARKS
GARY*          PTSUNNY   19   1  45 W12       30.03R WCI   7
VALPARAISO     CLOUDY    17   5  59 W9        30.01R WCI   6
MICHIGAN CITY* CLOUDY    18   7  62 NW6       30.02R WCI   9
LAPORTE*       MOSUNNY   18   7  62 NW9       30.00R WCI   6
KNOX*          PTSUNNY   18   3  53 W10       30.01R WCI   6
SOUTH BEND     LGT SNOW  15   8  73 W17       29.98R WCI  -1
ELKHART*       CLOUDY   N/A N/A N/A W14       29.96R
GOSHEN         LGT SNOW  17  11  77 W21       29.95R VSB 1   WCI   0
MONTICELLO*    CLOUDY    15   2  56 W8        30.03R WCI   5
LOGANSPORT*    CLOUDY    18   5  57 W14       30.03R WCI   4
ROCHESTER*     PTSUNNY   21   1  42 W10G17    29.99R WCI  10
WARSAW*        CLOUDY    19   9  63 W17G24    29.96R WCI   4
ANGOLA*        PTSUNNY   18  12  79 NW12      29.89R WCI   5
FORT WAYNE     FLURRIES  22  10  60 W20G28    29.95R WCI   7
HUNTINGTON*    MOSUNNY   18   3  51 W17G26    29.97R WCI   3
PERU/GRISSOM   CLOUDY    16   7  66 W17       29.99R WCI   0
MARION*        CLOUDY    16   0  50 W18       30.00R WCI  -1

$$
INZ028>050-102200-
CENTRAL INDIANA

CITY           SKY/WX    TMP DP  RH WIND       PRES   REMARKS
LAFAYETTE      CLOUDY    15   6  67 W13       30.05R WCI   1
KOKOMO*        CLOUDY    16   5  62 W15       30.01R WCI   1
MUNCIE*        CLOUDY    16   6  65 W15       30.00R WCI   1
INDIANAPOLIS   PTSUNNY   17   5  59 W17       30.03R WCI   1

$$
MIZ043>046-050>051-056>058-064>065-071>073-077>080-102200-
SOUTHWEST LOWER MICHIGAN

CITY           SKY/WX    TMP DP  RH WIND       PRES   REMARKS
BATTLE CREEK   CLOUDY    19   7  59 NW15G25   29.88R WCI   5
BENTON HARBOR  LGT SNOW  19  10  68 NW13G23   29.98R WCI   6
COLDWATER*     FLURRIES  19  11  70 NW12      29.89R WCI   7
HILLSDALE*     CLOUDY    19   9  63 W15G23    29.85R WCI   5
HOLLAND        SNOW      17  11  77 NW13G28   29.95R VSB 1/2 WCI   4
GRAND RAPIDS   PTSUNNY   19   5  54 NW21G26   29.90R WCI   3
KALAMAZOO      SNOW      18  11  74 NW17      29.91R VSB 1/2 WCI   3
STURGIS*       LGT SNOW  18  13  82 NW12      29.91R WCI   5
THREE RIVERS*  CLOUDY    19  10  66 NW15G22   29.92R WCI   5

$$
OHZ001>008-015>018-024>025-102200-
NORTHWEST OHIO

CITY           SKY/WX    TMP DP  RH WIND       PRES   REMARKS
DEFIANCE       CLOUDY    22   9  57 NW18      29.92R WCI   7
FINDLAY        CLOUDY    21  14  74 W16       29.89R WCI   7
TOLEDO EXPRESS CLOUDY    22   8  55 W20G26    29.88R WCI   7
TOLEDO METCALF CLOUDY    23   9  55 W20G25    29.88R WCI   8
LIMA           CLOUDY    19  11  70 W18       29.91R WCI   4

$$
AND FOR LAKE MICHIGAN COASTAL AND OPEN LAKE BUOY OBSERVATIONS

STATION/POSITION TEMP    WIND        PRES    VSBY  WAVE
                 AIR SEA DIR/SP/G                  HT/PER
                 (F)     (DEG/KT/KT) (MB)    (MI)  (FT/S)
CALUMET HARBOR    18     260/  5/ 10 1015.7R
MICHIGAN CITY     15     260/ 14/ 18   N/A
BURNS HARBOR      17     290/ 10/ 17 1016.6S
SAINT JOSEPH      19     290/ 14/ 19 1015.9R

$$
&&



USA.gov is the U.S. government's official web portal to all federal, state and local government web resources and services.